This demonstration page uses our WeatherBlox Daily Observations layout. Learn more.

Left ArrowRight Arrow

34.02893, -84.19858

Hourly Observations for March 16, 2016

Temp ( °F °C ) Dew Point ( °F °C ) Humidity (%) Winds ( mph kmh ) Pressure ( in mb ) Visibility ( mi km ) Precip ( " mm )
12:53 am 00:53 Clear 70 21.1 51 10.6 51 51 SW 13 20 29.82 1010 10 16 0.00 0.00
1:53 am 01:53 Clear 67 19.4 51 10.6 57 57 SW 9 15 29.82 1010 10 16 0.00 0.00
2:53 am 02:53 Clear 68 20 52 11.1 57 57 SW 13 20 29.83 1010 10 16 0.00 0.00
3:53 am 03:53 Clear 65 18.3 53 11.7 66 66 SW 12 19 29.82 1010 10 16 0.00 0.00
4:53 am 04:53 Clear 64 17.8 55 12.8 73 73 WSW 10 17 29.83 1010 10 16 0.00 0.00
5:53 am 05:53 Clear 63 17.2 57 13.9 81 81 SW 13 20 29.83 1010 10 16 0.00 0.00
6:53 am 06:53 Mostly Cloudy 63 17.2 59 15 87 87 WSW 8 13 29.87 1011 9 14 0.00 0.00
7:53 am 07:53 Partly Cloudy with Mist and Fog 62 16.7 59 15 90 90 WSW 5 7 29.89 1012 6 10 0.00 0.00
8:53 am 08:53 Sunny with Mist and Fog 65 18.3 61 16.1 87 87 WSW 9 15 29.91 1013 6 10 0.00 0.00
9:53 am 09:53 Sunny 69 20.6 62 16.7 78 78 W 12 19 29.93 1013 7 11 0.00 0.00
10:53 am 10:53 Partly Cloudy 73 22.8 60 15.6 64 64 W 13 20 29.93 1013 9 14 0.00 0.00
11:53 am 11:53 Sunny 76 24.4 50 10 40 40 WNW 9 15 29.93 1013 10 16 0.00 0.00
12:53 pm 12:53 Sunny 78 25.6 47 8.3 33 33 NW 12 19 29.93 1013 10 16 0.00 0.00
1:53 pm 13:53 Sunny 79 26.1 45 7.2 30 30 NW 12 19 29.93 1013 10 16 0.00 0.00
2:53 pm 14:53 Sunny 79 26.1 42 5.6 27 27 W 14 22 29.91 1013 10 16 0.00 0.00
3:53 pm 15:53 Sunny 79 26.1 38 3.3 23 23 W 14 22 29.91 1013 10 16 0.00 0.00
4:53 pm 16:53 Sunny 79 26.1 40 4.4 25 25 WSW 9 15 29.89 1012 10 16 0.00 0.00
5:53 pm 17:53 Sunny 79 26.1 37 2.8 22 22 W 13 20 29.90 1013 10 16 0.00 0.00
6:53 pm 18:53 Sunny 75 23.9 33 0.6 22 22 WNW 9 15 29.91 1013 10 16 0.00 0.00
7:53 pm 19:53 Clear 71 21.7 33 0.6 25 25 W 6 9 29.92 1013 10 16 0.00 0.00
8:53 pm 20:53 Clear 69 20.6 34 1.1 27 27 WNW 7 11 29.93 1014 10 16 0.00 0.00
9:53 pm 21:53 Clear 66 18.9 33 0.6 29 29 WNW 5 7 29.94 1014 10 16 0.00 0.00
10:53 pm 22:53 Clear 61 16.1 35 1.7 38 38 Calm 29.95 1014 10 16 0.00 0.00
11:53 pm 23:53 Clear 56 13.3 37 2.8 49 49 Calm 29.94 1014 10 16 0.00 0.00

Powered by AerisWeather